Location: Hall+in+Tirol
(47.2830°N, 11.5170°E)
Time: 01:06:31
(UTC+01:00)

Amateur Radio Satellites - All Passes

Search period start: 23 January 2018 00:36
Search period end: 24 January 2018 00:36
Location: Hall+in+Tirol, 47.2830°N, 11.5170°E

Satellite Date Start Highest point End Downlink Frequencies (MHz)
Time Altitude Azimuth
EO-79 23 Jan 00:37:02 00:41:20 76° 286° (WNW) 00:45:36 145.935-145.965
Oscar 19 23 Jan 00:48:15 00:51:56 19° 91° (E) 00:55:34 437.125/150
Gurwin Techsat 1B 23 Jan 00:50:03 00:53:13 16° 88° (E) 00:56:22 435.225
PRISM 23 Jan 00:52:28 00:53:24 11° 303° (WNW) 00:54:20 437.425
MOZHAYETS 4 23 Jan 00:53:44 00:55:45 13° 57° (ENE) 00:57:46
POLYITAN 1 23 Jan 01:12:55 01:16:48 34° 292° (WNW) 01:20:40 437.675
nSIGHT-1 23 Jan 01:15:06 01:18:18 86° 22° (NNE) 01:21:29 .
BEESAT 23 Jan 01:19:09 01:21:42 14° 56° (ENE) 01:24:14 436.000
YUBILEINY 23 Jan 01:19:57 01:26:44 24° 301° (WNW) 01:33:32 435.215
AO-91 23 Jan 01:20:59 01:25:18 43° 99° (E) 01:30:01 145.960
NANOSAT C BR1 23 Jan 01:26:47 01:30:26 28° 294° (WNW) 01:34:05 145.865
BUGSAT 1 23 Jan 01:26:51 01:31:06 67° 103° (ESE) 01:35:19 437.445
ISS 23 Jan 01:36:22 01:39:40 89° 25° (NNE) 01:42:56 437.550
QB50P2 23 Jan 01:43:40 01:46:27 17° 299° (WNW) 01:49:13 145.880/145.840
50 SAT 23 Jan 01:46:41 01:49:31 34° 261° (W) 01:52:24 437.505
UKube-1 23 Jan 01:46:45 01:51:01 71° 257° (WSW) 01:55:20 .
DX 1 23 Jan 02:03:36 02:07:26 30° 264° (W) 02:11:17 434.975-435.025
DUCHIFAT 1 23 Jan 02:10:31 02:12:39 14° 301° (WNW) 02:14:46 145.980
ITUPSAT 1 23 Jan 02:16:03 02:20:33 42° 68° (ENE) 02:25:05 437.325
EO-79 23 Jan 02:16:05 02:16:19 10° 304° (NW) 02:16:32 145.935-145.965
O/OREOS (USA 219) 23 Jan 02:16:33 02:19:10 15° 315° (NW) 02:21:48 437.305
Oscar 19 23 Jan 02:26:34 02:31:41 63° 288° (WNW) 02:36:45 437.125/150
MOZHAYETS 4 23 Jan 02:27:31 02:32:10 86° 73° (ENE) 02:36:51
Gurwin Techsat 1B 23 Jan 02:28:27 02:33:48 79° 287° (WNW) 02:39:06 435.225
CUBESAT XI-V 23 Jan 02:36:38 02:40:44 31° 66° (ENE) 02:44:50 437.345
nSIGHT-1 23 Jan 02:51:54 02:54:07 18° 222° (SW) 02:56:19 .
BEESAT 23 Jan 02:54:00 02:58:47 87° 255° (WSW) 03:03:36 436.000
AO-91 23 Jan 02:57:57 03:01:34 25° 294° (WNW) 03:05:30 145.960
BUGSAT 1 23 Jan 03:03:30 03:05:56 15° 300° (WNW) 03:08:22 437.445
ISS 23 Jan 03:13:31 03:15:46 17° 223° (SW) 03:18:01 437.550
AO-7 23 Jan 03:29:32 03:37:40 51° 101° (E) 03:45:43 .
ITAMSAT 1 23 Jan 03:37:15 03:42:02 36° 97° (E) 03:46:48 435.822/435.867
KKS-1 23 Jan 03:42:37 03:46:07 23° 63° (ENE) 03:49:38 437.445
STARS 23 Jan 03:54:04 03:56:13 14° 58° (ENE) 03:58:21 437.465
ITUPSAT 1 23 Jan 03:54:33 03:58:31 26° 266° (W) 04:02:31 437.325
MOZHAYETS 4 23 Jan 04:08:17 04:09:58 12° 273° (W) 04:11:39
Oscar 19 23 Jan 04:08:38 04:09:59 11° 308° (NW) 04:11:21 437.125/150
Gurwin Techsat 1B 23 Jan 04:10:12 04:12:54 14° 306° (NW) 04:15:36 435.225
CUBESAT XI-V 23 Jan 04:13:46 04:18:01 34° 264° (W) 04:22:17 437.345
DOVE 4 23 Jan 04:27:47 04:31:41 30° 96° (E) 04:35:44 437.250
BEESAT 23 Jan 04:35:55 04:37:16 11° 273° (W) 04:38:37 436.000
M-CUBED/EXP-1 PRIME 23 Jan 04:49:07 04:51:42 21° 100° (E) 04:54:15 437.505
STRAND 1 23 Jan 04:51:41 04:52:26 10° 51° (NE) 04:53:11 437.568
FALCONSAT 3 23 Jan 05:02:53 05:04:39 13° 177° (S) 05:06:25 435.103
SO-50 23 Jan 05:03:36 05:07:54 48° 121° (ESE) 05:12:16 436.795
XW-2C 23 Jan 05:13:10 05:14:34 12° 89° (E) 05:15:57 145.795 - 145.815
LilacSat-2 23 Jan 05:13:26 05:15:13 13° 89° (E) 05:17:00 437.200
ITAMSAT 1 23 Jan 05:16:47 05:21:28 35° 295° (WNW) 05:26:09 435.822/435.867
KKS-1 23 Jan 05:18:15 05:22:26 42° 262° (W) 05:26:39 437.445
AO-7 23 Jan 05:22:33 05:30:20 45° 302° (WNW) 05:38:05 .
CUTE-I 23 Jan 05:26:29 05:29:59 18° 90° (E) 05:33:28 437.470
STARS 23 Jan 05:27:34 05:31:55 81° 256° (WSW) 05:36:20 437.465
KAITUO 1B 23 Jan 05:40:49 05:43:16 17° 92° (E) 05:45:43 145.475/437.950
XW-2F 23 Jan 05:45:55 05:49:03 25° 94° (E) 05:52:10 145.980 - 146.000
NUDT-PHONESAT 23 Jan 05:47:33 05:50:12 19° 92° (E) 05:52:50 437.300
XW-2D 23 Jan 05:57:18 06:00:50 37° 97° (E) 06:04:19 145.860 - 145.880
DOVE 4 23 Jan 06:05:32 06:09:20 31° 292° (WNW) 06:13:20 437.250
XW-2B 23 Jan 06:14:52 06:18:36 57° 100° (E) 06:22:17 145.730 - 145.750
RS-15 23 Jan 06:17:11 06:25:53 23° 99° (E) 06:34:29 29.354- 29.394
SEEDS 23 Jan 06:17:35 06:19:06 12° 88° (E) 06:20:38 437.485
M-CUBED/EXP-1 PRIME 23 Jan 06:23:18 06:26:09 26° 299° (WNW) 06:28:54 437.505
STRAND 1 23 Jan 06:25:35 06:30:35 60° 71° (ENE) 06:35:37 437.568
FO-29 23 Jan 06:32:50 06:38:47 38° 66° (ENE) 06:44:08 435.910
CUTE 1.7 + AOD 2 23 Jan 06:32:54 06:36:32 28° 95° (E) 06:40:09 437.475
FALCONSAT 3 23 Jan 06:42:13 06:42:51 10° 193° (SSW) 06:43:28 435.103
SO-50 23 Jan 06:44:36 06:48:33 29° 321° (NW) 06:52:35 436.795
XW-2C 23 Jan 06:45:24 06:49:07 59° 287° (WNW) 06:52:48 145.795 - 145.815
LilacSat-2 23 Jan 06:46:07 06:49:50 54° 287° (WNW) 06:53:30 437.200
HO-68 23 Jan 06:54:41 07:01:37 49° 100° (E) 07:08:30 435.675
CUTE-I 23 Jan 07:05:15 07:10:35 72° 287° (WNW) 07:15:53 437.470
CUBEBUG 2 23 Jan 07:07:41 07:12:15 45° 98° (E) 07:16:48 437.445
XW-2A 23 Jan 07:07:43 07:08:44 11° 90° (E) 07:09:46 145.665 - 145.685
UWE-3 23 Jan 07:08:38 07:12:37 27° 93° (E) 07:16:32 435.000/436.395/437.385
KAITUO 1B 23 Jan 07:13:57 07:17:25 38° 289° (WNW) 07:20:51 145.475/437.950
AO-7 23 Jan 07:17:14 07:21:00 14° 326° (NW) 07:24:47 .
XW-2F 23 Jan 07:19:56 07:23:07 27° 292° (WNW) 07:26:16 145.980 - 146.000
NUDT-PHONESAT 23 Jan 07:20:47 07:24:09 34° 290° (WNW) 07:27:28 437.300
AAUSAT CUBESAT 2 23 Jan 07:26:02 07:29:33 27° 95° (E) 07:33:02 437.432
ZACube-1 23 Jan 07:27:26 07:31:01 22° 92° (E) 07:34:31 437.345
UNISAT 6 23 Jan 07:29:17 07:31:12 13° 57° (ENE) 07:33:07 437.425
YUBILEINY 23 Jan 07:31:41 07:35:26 13° 47° (NE) 07:39:09 435.215
XW-2D 23 Jan 07:32:03 07:34:45 19° 295° (WNW) 07:37:26 145.860 - 145.880
AO-73 23 Jan 07:32:47 07:36:19 22° 92° (E) 07:39:48 145.935
XW-2B 23 Jan 07:50:25 07:52:19 13° 298° (WNW) 07:54:12 145.730 - 145.750
SEEDS 23 Jan 07:51:07 07:55:17 72° 285° (WNW) 07:59:25 437.485
Oscar 11 23 Jan 08:03:17 08:06:59 27° 94° (E) 08:10:39 .
STRAND 1 23 Jan 08:06:29 08:10:10 20° 269° (W) 08:13:53 437.568
BEESAT 3 23 Jan 08:07:09 08:07:38 10° 109° (ESE) 08:08:06 437.485
CUTE 1.7 + AOD 2 23 Jan 08:08:39 08:12:21 30° 293° (WNW) 08:16:02 437.475
FO-29 23 Jan 08:17:37 08:23:51 41° 262° (W) 08:29:26 435.910
RS-15 23 Jan 08:24:09 08:36:27 79° 122° (ESE) 08:48:33 29.354- 29.394
SO-50 23 Jan 08:29:15 08:30:30 11° 345° (NNW) 08:31:47 436.795
PRISM 23 Jan 08:34:23 08:35:50 12° 58° (ENE) 08:37:15 437.425
XW-2A 23 Jan 08:38:28 08:41:43 49° 287° (WNW) 08:44:57 145.665 - 145.685
HO-68 23 Jan 08:42:42 08:49:13 40° 299° (WNW) 08:55:44 435.675
CUBEBUG 2 23 Jan 08:44:45 08:48:37 25° 296° (WNW) 08:52:27 437.445
UWE-3 23 Jan 08:44:48 08:49:09 38° 292° (WNW) 08:53:24 435.000/436.395/437.385
TIGRISAT 23 Jan 08:46:49 08:51:12 56° 72° (ENE) 08:55:42 435.000
CUTE-I 23 Jan 08:47:22 08:49:43 13° 307° (NW) 08:52:03 437.470
BEESAT 2 23 Jan 09:01:04 09:01:21 10° 108° (ESE) 09:01:38 435.950
AAUSAT CUBESAT 2 23 Jan 09:01:22 09:04:59 30° 292° (WNW) 09:08:34 437.432
O/OREOS (USA 219) 23 Jan 09:02:24 09:06:34 36° 57° (ENE) 09:10:43 437.305
UNISAT 6 23 Jan 09:02:40 09:07:09 88° 71° (ENE) 09:11:45 437.425
ZACube-1 23 Jan 09:03:08 09:07:29 44° 290° (WNW) 09:11:44 437.345
AO-73 23 Jan 09:08:25 09:12:45 44° 290° (WNW) 09:16:59 145.935
DELFI C3 23 Jan 09:15:30 09:18:57 29° 95° (E) 09:22:24 145.870
Max Valier Satellite 23 Jan 09:25:23 09:28:27 24° 94° (E) 09:31:29 145.860
YUBILEINY 23 Jan 09:26:14 09:34:46 53° 73° (ENE) 09:43:12 435.215
PCSat 23 Jan 09:30:03 09:35:19 56° 117° (ESE) 09:40:38 145.827
AIST 2D 23 Jan 09:30:37 09:32:53 16° 65° (ENE) 09:35:08 435.315
EO-88 23 Jan 09:38:30 09:41:25 22° 94° (E) 09:44:17 145.990 - 145.960
Oscar 11 23 Jan 09:39:15 09:43:08 33° 292° (WNW) 09:47:00 .
BEESAT 3 23 Jan 09:40:29 09:44:28 88° 128° (SE) 09:48:29 437.485
DUCHIFAT 1 23 Jan 09:55:57 09:56:46 10° 56° (ENE) 09:57:34 145.980
EO-79 23 Jan 09:58:35 10:00:55 15° 60° (ENE) 10:03:15 145.935-145.965
PRISM 23 Jan 10:06:24 10:10:27 83° 253° (WSW) 10:14:32 437.425
TIGRISAT 23 Jan 10:25:17 10:28:15 17° 270° (W) 10:31:18 435.000
POLYITAN 1 23 Jan 10:32:35 10:36:16 29° 66° (ENE) 10:40:00 437.675
BEESAT 2 23 Jan 10:34:19 10:38:22 86° 121° (ESE) 10:42:26 435.950
HO-68 23 Jan 10:34:45 10:35:02 10° 322° (NW) 10:35:19 435.675
RS-15 23 Jan 10:38:22 10:50:06 47° 329° (NNW) 11:01:31 29.354- 29.394
ESTCUBE 1 23 Jan 10:39:50 10:42:28 15° 89° (E) 10:45:04 437.505/2401.250
O/OREOS (USA 219) 23 Jan 10:42:02 10:45:51 28° 255° (WSW) 10:49:39 437.305
UNISAT 6 23 Jan 10:43:17 10:44:32 11° 274° (W) 10:45:49 437.425
NANOSAT C BR1 23 Jan 10:45:40 10:49:30 35° 68° (ENE) 10:53:22 145.865
LO-87 23 Jan 10:50:03 10:52:51 21° 94° (E) 10:55:38 145.935 - 145.965
DELFI C3 23 Jan 10:50:19 10:53:36 26° 293° (WNW) 10:56:53 145.870
Max Valier Satellite 23 Jan 10:59:04 11:02:14 27° 292° (WNW) 11:05:22 145.860
QB50P2 23 Jan 11:01:55 11:06:07 64° 72° (ENE) 11:10:21 145.880/145.840
AIST 2D 23 Jan 11:02:27 11:05:45 38° 262° (W) 11:09:04 435.315
EO-88 23 Jan 11:11:53 11:15:02 28° 292° (WNW) 11:18:10 145.990 - 145.960
PCSat 23 Jan 11:14:15 11:19:01 31° 318° (NW) 11:23:50 145.827
BEESAT 3 23 Jan 11:19:50 11:22:32 17° 326° (NNW) 11:25:14 437.485
YUBILEINY 23 Jan 11:23:29 11:31:19 39° 275° (W) 11:39:07 435.215
DUCHIFAT 1 23 Jan 11:27:28 11:31:40 81° 75° (ENE) 11:35:56 145.980
EO-79 23 Jan 11:31:55 11:36:07 70° 257° (WSW) 11:40:24 145.935-145.965
SPROUT 23 Jan 11:42:23 11:45:06 16° 90° (E) 11:47:48 437.525
AO-85 23 Jan 11:48:57 11:52:55 67° 124° (SE) 11:57:14 145.980
SO-50 23 Jan 11:51:37 11:55:20 23° 34° (NE) 11:59:06 436.795
VELOX 1 23 Jan 12:04:43 12:07:20 15° 90° (E) 12:09:55 145.980
Oscar 19 23 Jan 12:07:39 12:12:27 39° 66° (ENE) 12:17:16 437.125/150
POLYITAN 1 23 Jan 12:08:15 12:11:59 30° 264° (W) 12:15:47 437.675
Gurwin Techsat 1B 23 Jan 12:13:35 12:18:21 35° 65° (ENE) 12:23:07 435.225
BEESAT 2 23 Jan 12:13:49 12:16:37 18° 326° (NNW) 12:19:25 435.950
ESTCUBE 1 23 Jan 12:15:15 12:19:42 64° 288° (WNW) 12:24:07 437.505/2401.250
BUGSAT 1 23 Jan 12:19:01 12:23:05 69° 74° (ENE) 12:27:15 437.445
NANOSAT C BR1 23 Jan 12:21:47 12:25:16 25° 266° (W) 12:28:47 145.865
AO-91 23 Jan 12:22:08 12:25:22 41° 70° (ENE) 12:28:46 145.960
LO-87 23 Jan 12:23:03 12:26:17 30° 291° (WNW) 12:29:30 145.935 - 145.965
QB50P2 23 Jan 12:40:07 12:42:19 14° 271° (W) 12:44:33 145.880/145.840
AO-7 23 Jan 12:41:48 12:48:15 26° 47° (NE) 12:54:42 .
RS-15 23 Jan 12:55:40 13:06:21 34° 2° (N) 13:16:38 29.354- 29.394
PCSat 23 Jan 13:02:35 13:04:16 11° 342° (NNW) 13:05:57 145.827
DUCHIFAT 1 23 Jan 13:06:53 13:07:54 11° 273° (W) 13:08:54 145.980
SPROUT 23 Jan 13:17:06 13:21:19 55° 288° (WNW) 13:25:31 437.525
ITAMSAT 1 23 Jan 13:22:23 13:24:44 13° 53° (NE) 13:27:05 435.822/435.867
AO-85 23 Jan 13:30:32 13:33:48 22° 326° (NW) 13:37:17 145.980
SO-50 23 Jan 13:31:37 13:36:19 79° 234° (SW) 13:41:05 436.795
UKube-1 23 Jan 13:31:40 13:34:08 15° 90° (E) 13:36:34 .
VELOX 1 23 Jan 13:39:49 13:44:10 61° 288° (WNW) 13:48:30 145.980
Oscar 19 23 Jan 13:47:13 13:51:49 32° 265° (W) 13:56:28 437.125/150
DX 1 23 Jan 13:47:56 13:51:55 34° 97° (E) 13:55:52 434.975-435.025
Gurwin Techsat 1B 23 Jan 13:53:21 13:58:15 37° 263° (W) 14:03:10 435.225
BUGSAT 1 23 Jan 13:57:15 13:58:56 12° 272° (W) 14:00:38 437.445
AO-91 23 Jan 14:00:27 14:02:11 13° 270° (W) 14:03:58 145.960
MOZHAYETS 4 23 Jan 14:20:27 14:23:22 16° 90° (E) 14:26:14
50 SAT 23 Jan 14:29:00 14:32:07 80° 286° (WNW) 14:35:14 437.505
AO-7 23 Jan 14:31:36 14:39:58 87° 70° (ENE) 14:48:25 .
BEESAT 23 Jan 14:51:42 14:55:05 19° 91° (E) 14:58:27 436.000
ITAMSAT 1 23 Jan 14:58:11 15:03:20 76° 72° (ENE) 15:08:31 435.822/435.867
UKube-1 23 Jan 15:06:16 15:10:32 61° 288° (WNW) 15:14:47 .
RS-15 23 Jan 15:10:40 15:22:17 52° 35° (NE) 15:33:16 29.354- 29.394
SO-50 23 Jan 15:14:28 15:16:02 11° 252° (WSW) 15:17:35 436.795
DX 1 23 Jan 15:24:18 15:27:59 27° 295° (WNW) 15:31:38 434.975-435.025
M-CUBED/EXP-1 PRIME 23 Jan 15:36:10 15:40:19 57° 67° (ENE) 15:44:11 437.505
DOVE 4 23 Jan 15:36:26 15:40:23 41° 70° (ENE) 15:44:19 437.250
HO-68 23 Jan 15:44:12 15:47:05 13° 42° (NE) 15:49:59 435.675
ITUPSAT 1 23 Jan 15:50:33 15:55:22 64° 102° (ESE) 16:00:08 437.325
MOZHAYETS 4 23 Jan 15:56:21 16:00:57 63° 287° (WNW) 16:05:29
XW-2C 23 Jan 15:58:23 15:59:09 10° 59° (ENE) 15:59:55 145.795 - 145.815
LilacSat-2 23 Jan 15:58:58 16:00:23 12° 60° (ENE) 16:01:48 437.200
CUBESAT XI-V 23 Jan 16:06:28 16:10:55 46° 99° (E) 16:15:20 437.345
BEESAT 3 23 Jan 16:17:12 16:20:18 22° 37° (NE) 16:23:23 437.485
KAITUO 1B 23 Jan 16:24:08 16:26:08 14° 62° (ENE) 16:28:06 145.475/437.950
NO-84 23 Jan 16:24:10 16:27:04 35° 139° (SE) 16:29:48 435.350 FM
AO-7 23 Jan 16:27:26 16:33:44 23° 270° (W) 16:40:06 .
BEESAT 23 Jan 16:28:29 16:33:13 58° 289° (WNW) 16:37:54 436.000
XW-2F 23 Jan 16:29:42 16:32:32 20° 65° (ENE) 16:35:22 145.980 - 146.000
NUDT-PHONESAT 23 Jan 16:29:50 16:31:59 15° 63° (ENE) 16:34:10 437.300
PCSat 23 Jan 16:31:52 16:36:02 22° 35° (NE) 16:40:09 145.827
ITAMSAT 1 23 Jan 16:40:15 16:43:23 16° 271° (W) 16:46:30 435.822/435.867
XW-2D 23 Jan 16:41:13 16:44:33 29° 69° (ENE) 16:47:54 145.860 - 145.880
CUTE-I 23 Jan 16:50:52 16:55:45 39° 66° (ENE) 17:00:40 437.470
AO-85 23 Jan 16:57:22 16:58:37 11° 16° (NNE) 16:59:53 145.980
XW-2B 23 Jan 16:58:35 17:02:12 43° 71° (ENE) 17:05:51 145.730 - 145.750
KKS-1 23 Jan 17:05:49 17:09:41 28° 95° (E) 17:13:31 437.445
BEESAT 2 23 Jan 17:11:47 17:15:00 22° 37° (NE) 17:18:11 435.950
SEEDS 23 Jan 17:12:07 17:14:14 14° 60° (ENE) 17:16:20 437.485
M-CUBED/EXP-1 PRIME 23 Jan 17:12:23 17:14:55 16° 262° (W) 17:17:23 437.505
STARS 23 Jan 17:14:52 17:17:20 15° 90° (E) 17:19:50 437.465
DOVE 4 23 Jan 17:15:13 17:18:18 20° 268° (W) 17:21:21 437.250
RS-15 23 Jan 17:23:43 17:35:14 65° 243° (WSW) 17:46:09 29.354- 29.394
HO-68 23 Jan 17:26:23 17:33:12 50° 64° (ENE) 17:40:04 435.675
CUTE 1.7 + AOD 2 23 Jan 17:28:15 17:31:58 30° 67° (ENE) 17:35:41 437.475
XW-2C 23 Jan 17:28:52 17:32:43 82° 257° (WSW) 17:36:33 145.795 - 145.815
ITUPSAT 1 23 Jan 17:29:21 17:32:43 19° 300° (WNW) 17:36:04 437.325
LilacSat-2 23 Jan 17:30:15 17:34:06 73° 258° (WSW) 17:37:58 437.200
CUBESAT XI-V 23 Jan 17:44:25 17:48:00 23° 297° (WNW) 17:51:34 437.345
BEESAT 3 23 Jan 17:54:16 17:58:08 56° 237° (WSW) 18:01:55 437.485
KAITUO 1B 23 Jan 17:55:58 17:59:40 55° 260° (W) 18:03:22 145.475/437.950
NO-84 23 Jan 18:01:26 18:04:13 34° 336° (NNW) 18:06:53 435.350 FM
NUDT-PHONESAT 23 Jan 18:01:48 18:05:26 50° 260° (W) 18:09:05 437.300
XW-2F 23 Jan 18:02:53 18:06:24 35° 263° (W) 18:09:57 145.980 - 146.000
UWE-3 23 Jan 18:08:15 18:12:12 31° 66° (ENE) 18:16:15 435.000/436.395/437.385
CUBEBUG 2 23 Jan 18:08:22 18:12:39 51° 71° (ENE) 18:17:08 437.445
PCSat 23 Jan 18:14:43 18:20:12 88° 57° (ENE) 18:25:37 145.827
XW-2D 23 Jan 18:15:35 18:18:42 24° 266° (W) 18:21:51 145.860 - 145.880
AAUSAT CUBESAT 2 23 Jan 18:18:52 18:22:21 27° 67° (ENE) 18:25:50 437.432
ZACube-1 23 Jan 18:25:51 18:29:34 26° 65° (ENE) 18:33:20 437.345
AO-73 23 Jan 18:30:51 18:34:33 26° 65° (ENE) 18:38:18 145.935
CUTE-I 23 Jan 18:31:06 18:35:51 33° 264° (W) 18:40:38 437.470
STRAND 1 23 Jan 18:33:59 18:37:07 16° 89° (E) 18:40:15 437.568
XW-2B 23 Jan 18:34:06 18:36:35 16° 269° (W) 18:39:04 145.730 - 145.750
AO-85 23 Jan 18:36:22 18:40:34 29° 39° (NE) 18:45:00 145.980
KKS-1 23 Jan 18:42:14 18:46:15 34° 293° (WNW) 18:50:17 437.445
SEEDS 23 Jan 18:45:10 18:49:22 73° 258° (WSW) 18:53:35 437.485
BEESAT 2 23 Jan 18:49:04 18:53:01 57° 238° (WSW) 18:56:55 435.950
STARS 23 Jan 18:49:43 18:54:07 65° 287° (WNW) 18:58:30 437.465
Oscar 11 23 Jan 19:00:48 19:04:37 31° 67° (ENE) 19:08:27 .
CUTE 1.7 + AOD 2 23 Jan 19:04:01 19:07:46 29° 265° (W) 19:11:30 437.475
XW-2A 23 Jan 19:11:35 19:14:59 83° 78° (ENE) 19:18:26 145.665 - 145.685
HO-68 23 Jan 19:14:35 19:21:07 38° 264° (W) 19:27:42 435.675
FO-29 23 Jan 19:23:41 19:27:26 20° 91° (E) 19:31:12 435.910
nSIGHT-1 23 Jan 19:29:55 19:32:29 23° 140° (SE) 19:35:02 .
RS-15 23 Jan 19:39:10 19:44:59 16° 266° (W) 19:50:42 29.354- 29.394
NO-84 23 Jan 19:39:56 19:41:58 17° 357° (N) 19:43:59 435.350 FM
UWE-3 23 Jan 19:44:33 19:48:35 32° 265° (W) 19:52:43 435.000/436.395/437.385
CUBEBUG 2 23 Jan 19:46:24 19:49:35 19° 270° (W) 19:52:52 437.445
AAUSAT CUBESAT 2 23 Jan 19:54:03 19:57:42 31° 264° (W) 20:01:24 437.432
ISS 23 Jan 19:54:37 19:57:25 26° 141° (SE) 20:00:13 437.550
PCSat 23 Jan 19:59:43 20:02:50 16° 256° (WSW) 20:05:57 145.827
ZACube-1 23 Jan 20:01:26 20:05:39 39° 263° (W) 20:09:57 437.345
DELFI C3 23 Jan 20:03:33 20:06:48 26° 67° (ENE) 20:10:04 145.870
AO-73 23 Jan 20:06:21 20:10:35 40° 263° (W) 20:14:53 145.935
Max Valier Satellite 23 Jan 20:07:16 20:09:55 19° 65° (ENE) 20:12:34 145.860
STRAND 1 23 Jan 20:11:43 20:16:52 75° 287° (WNW) 20:22:00 437.568
AO-85 23 Jan 20:16:28 20:21:20 61° 237° (WSW) 20:26:29 145.980
EO-88 23 Jan 20:19:20 20:21:43 17° 64° (ENE) 20:24:06 145.990 - 145.960
Oscar 11 23 Jan 20:36:54 20:40:44 29° 265° (W) 20:44:34 .
TIGRISAT 23 Jan 20:37:59 20:38:40 10° 85° (E) 20:39:21 435.000
YUBILEINY 23 Jan 20:42:59 20:44:37 11° 68° (ENE) 20:46:15 435.215
UNISAT 6 23 Jan 20:52:08 20:55:05 16° 89° (E) 20:58:00 437.425
nSIGHT-1 23 Jan 21:05:14 21:08:23 70° 337° (NNW) 21:11:34 .
FO-29 23 Jan 21:07:55 21:13:01 57° 290° (WNW) 21:18:09 435.910
NO-84 23 Jan 21:17:20 21:19:48 26° 19° (NNE) 21:22:17 435.350 FM
LO-87 23 Jan 21:29:30 21:31:32 15° 63° (ENE) 21:33:35 145.935 - 145.965
ISS 23 Jan 21:30:27 21:33:42 65° 340° (NNW) 21:36:58 437.550
DELFI C3 23 Jan 21:38:02 21:41:27 29° 265° (W) 21:44:54 145.870
Max Valier Satellite 23 Jan 21:39:58 21:43:28 38° 262° (W) 21:47:00 145.860
ESTCUBE 1 23 Jan 21:41:59 21:45:24 22° 63° (ENE) 21:48:50 437.505/2401.250
PRISM 23 Jan 21:46:58 21:47:39 10° 88° (E) 21:48:20 437.425
EO-88 23 Jan 21:51:34 21:55:02 41° 261° (W) 21:58:31 145.990 - 145.960
STRAND 1 23 Jan 21:52:57 21:55:11 13° 306° (NW) 21:57:26 437.568
TIGRISAT 23 Jan 22:11:20 22:16:05 83° 104° (ESE) 22:20:46 435.000
AIST 2D 23 Jan 22:25:21 22:26:42 12° 90° (E) 22:28:03 435.315
UNISAT 6 23 Jan 22:27:32 22:32:13 65° 287° (WNW) 22:36:52 437.425
YUBILEINY 23 Jan 22:30:47 22:39:16 55° 90° (E) 22:47:43 435.215
SPROUT 23 Jan 22:38:29 22:41:31 19° 62° (ENE) 22:44:33 437.525
nSIGHT-1 23 Jan 22:41:54 22:44:52 35° 358° (N) 22:47:50 .
NO-84 23 Jan 22:54:19 22:57:04 51° 219° (SW) 22:59:54 435.350 FM
LO-87 23 Jan 23:01:06 23:04:33 47° 260° (W) 23:08:03 145.935 - 145.965
VELOX 1 23 Jan 23:04:37 23:07:53 21° 63° (ENE) 23:11:10 145.980
ISS 23 Jan 23:07:27 23:10:31 36° 360° (N) 23:13:35 437.550
DUCHIFAT 1 23 Jan 23:10:52 23:11:36 10° 87° (E) 23:12:19 145.980
EO-79 23 Jan 23:14:23 23:16:58 16° 90° (E) 23:19:33 145.935-145.965
ESTCUBE 1 23 Jan 23:17:31 23:21:54 48° 261° (W) 23:26:18 437.505/2401.250
O/OREOS (USA 219) 23 Jan 23:18:40 23:22:06 22° 103° (ESE) 23:25:33 437.305
PRISM 23 Jan 23:19:21 23:23:27 79° 285° (WNW) 23:27:32 437.425
POLYITAN 1 23 Jan 23:49:13 23:53:10 34° 96° (E) 23:57:04 437.675
TIGRISAT 23 Jan 23:49:31 23:52:06 15° 302° (WNW) 23:54:41 435.000
AIST 2D 23 Jan 23:56:47 00:00:09 49° 287° (WNW) 00:03:29 435.315
NANOSAT C BR1 24 Jan 00:01:48 00:05:51 40° 98° (E) 00:09:52 145.865
UNISAT 6 24 Jan 00:07:53 00:07:59 10° 306° (NW) 00:08:06 437.425
SPROUT 24 Jan 00:12:55 00:17:03 49° 261° (W) 00:21:14 437.525
nSIGHT-1 24 Jan 00:18:16 00:21:24 56° 18° (NNE) 00:24:32 .
QB50P2 24 Jan 00:19:00 00:23:19 79° 103° (ESE) 00:27:36 145.880/145.840
UKube-1 24 Jan 00:28:45 00:31:52 20° 62° (ENE) 00:35:00 .
